STARLINK-34530

Last updated on Thu Jul 03 2025 00:02:07 GMT+0000 (Coordinated Universal Time)

1 64491U 25133V 25183.58335648 -.01238954 00000+0 -60896-2 0 9993 2 64491 53.1552 210.7626 0001096 56.4258 323.8093 15.84074005 2708
UTC large
Height (km)
Speed (km/s)
/
Latitude / Longitude
Inclination (degrees)
Orbital Period (minutes)
Azimuth
Elevation
Range (km)
Doppler Factor

Next 0 passes for location: London (51.5072 / 0.1276)

Sorry there are no passes over London.